Wind_Speed
21 22 22 22 23 23 24 24 24 24 24 24 24 23 22 22 22 22 21 22 23 25 28 32 32 30 29 27 26 24 23 21 21 20 20 19 19 18 16 15 13 10 9
22 23 23 24 24 25 26 26 27 27 26 26 26 25 24 24 23 23 23 23 24 25 27 31 34 33 32 31 29 28 26 25 23 22 21 21 20 20 19 17 15 13 11
23 24 24 25 25 26 27 27 28 28 28 27 27 27 26 25 25 25 25 25 25 25 26 30 34 36 35 34 33 32 30 28 27 25 24 23 22 21 20 19 18 16 14
23 24 24 25 25 26 27 27 28 28 28 28 28 28 27 27 27 27 27 26 26 27 26 29 33 36 37 37 36 35 34 32 30 29 27 26 24 23 22 21 20 18 17
22 22 23 24 25 25 26 26 27 27 28 28 29 29 29 28 28 28 28 28 28 28 29 28 32 35 38 39 39 38 37 36 34 32 30 29 27 26 24 23 22 20 19
21 22 22 23 24 24 24 25 25 26 27 28 28 29 30 30 30 30 30 30 30 30 31 30 31 35 38 40 41 41 40 39 37 36 34 32 30 29 27 26 25 24 22
21 22 22 22 23 23 23 24 25 25 26 27 28 29 29 31 32 32 33 33 32 32 32 33 32 34 38 40 41 42 43 42 41 39 37 35 33 31 30 29 28 27 25
21 21 22 22 22 23 23 23 24 24 25 25 27 28 29 30 31 32 33 34 35 35 34 34 34 35 37 40 42 43 45 45 43 42 40 38 36 34 32 31 30 29 28
20 20 20 21 21 22 23 23 24 24 25 26 26 27 28 30 31 32 33 34 35 36 36 36 36 36 37 40 42 43 45 46 46 44 43 41 39 36 35 33 32 31 30
18 18 18 19 20 21 22 23 24 25 26 27 27 27 28 29 31 32 33 34 35 36 37 38 37 37 38 39 42 44 45 47 47 45 44 43 41 39 36 34 33 32 31
17 18 18 19 20 21 22 23 24 26 27 28 29 29 29 30 31 32 33 34 35 36 37 38 38 38 38 40 41 44 45 47 47 46 45 44 43 42 38 37 34 33 32
17 18 19 20 21 22 23 24 26 27 28 30 31 32 32 32 33 33 34 35 36 37 38 39 40 40 40 41 42 43 46 47 47 46 46 45 45 44 42 40 37 35 33
20 20 21 21 22 23 24 26 27 29 30 31 33 34 35 35 35 36 36 36 37 38 39 39 40 41 41 41 42 43 45 47 47 47 47 46 46 44 44 41 39 37 35
23 23 23 24 25 26 27 28 29 30 31 32 34 35 37 38 38 38 39 38 38 39 39 40 40 41 43 42 42 43 46 47 47 47 47 47 47 45 44 43 41 39 37
25 26 27 27 28 29 29 30 31 31 33 34 35 36 38 39 39 40 41 41 41 40 40 41 41 41 43 44 45 44 46 47 47 47 47 48 48 47 46 45 43 41 39
27 28 29 30 31 32 32 33 33 33 34 35 35 36 37 39 40 40 41 42 42 42 41 42 41 42 43 44 45 45 45 46 47 46 47 48 49 49 48 46 44 43 40
30 31 33 33 34 35 35 35 35 35 35 35 36 36 37 38 38 40 41 42 43 43 43 43 43 43 43 43 44 45 46 46 46 46 47 48 49 50 50 48 46 44 42
33 34 36 36 37 38 38 37 37 36 35 35 36 36 36 37 37 39 40 41 42 43 44 44 45 45 45 44 44 45 46 47 45 46 47 49 49 50 50 49 48 45 44
36 38 39 40 40 40 40 39 37 36 35 35 35 35 35 35 36 37 39 40 41 43 43 44 46 46 46 45 45 45 46 46 45 46 47 49 50 50 50 50 50 47 46
39 40 41 42 42 42 41 39 37 37 36 35 35 34 34 34 35 36 37 39 40 42 43 44 45 47 46 46 46 46 46 46 46 45 46 48 50 51 51 51 50 48 47
42 43 44 44 43 42 41 39 37 36 36 35 35 34 34 34 34 35 36 37 39 40 42 44 45 46 48 47 47 46 46 46 46 46 46 47 48 50 52 52 52 50 48
44 45 45 44 43 42 40 39 37 36 35 35 34 34 34 33 34 35 36 37 39 40 42 44 45 47 48 48 48 48 46 45 44 45 45 46 47 49 51 53 52 51 49
45 45 45 44 42 41 40 38 37 35 35 34 33 33 33 33 33 34 35 37 38 40 42 44 45 47 49 50 50 50 49 47 45 44 45 46 46 47 49 51 53 52 51
46 46 45 43 41 40 38 37 35 34 34 33 32 32 32 33 33 33 34 35 37 39 41 43 45 47 50 51 51 51 50 49 46 45 45 45 45 46 48 50 52 52 51
47 46 44 42 39 38 37 35 34 33 32 32 32 31 31 32 32 32 33 34 36 39 42 44 45 48 50 51 52 52 51 51 48 46 45 44 45 45 46 47 49 51 49
47 45 43 41 38 37 36 35 33 32 32 31 31 31 31 31 32 32 33 34 35 38 41 44 46 47 50 52 53 53 53 52 51 49 48 45 44 43 44 47 48 51 51
Wind_Direction
287 286 286 282 278 276 277 278 278 278 277 275 274 271 268 265 263 261 259 252 248 242 231 224 223 223 222 221 219 216 213 212 211 212 213 214 214 213 212 211 211 211 208
284 283 283 282 280 277 277 276 276 276 275 273 271 270 268 265 263 259 257 252 250 246 238 229 225 224 223 223 221 219 217 215 214 214 214 216 217 219 219 219 220 220 218
284 282 282 280 279 277 276 275 275 274 273 271 270 269 267 265 262 259 255 252 250 248 245 235 228 226 225 225 223 222 220 219 218 217 216 217 219 221 222 223 223 223 223
285 283 281 280 278 276 275 274 273 273 272 270 269 268 266 264 262 259 255 251 249 248 248 240 233 228 227 227 225 224 223 222 221 220 219 219 220 222 224 224 224 224 224
284 283 282 281 279 277 275 274 273 272 270 269 268 266 265 263 260 258 255 252 249 248 247 243 235 232 230 229 227 226 225 224 223 223 222 222 222 223 224 225 226 226 225
287 285 283 281 280 279 278 276 274 272 271 270 268 266 263 262 259 256 254 253 251 249 246 243 238 235 233 231 229 228 227 226 226 225 224 224 224 224 225 226 227 228 228
291 288 285 283 282 281 280 278 276 274 272 271 268 266 264 261 259 256 254 253 252 251 248 244 242 238 234 231 229 228 228 228 228 227 225 225 225 226 226 227 228 229 229
296 292 289 287 285 284 282 281 279 277 274 272 270 267 265 262 259 257 254 252 252 251 249 245 243 241 236 233 231 230 229 229 229 228 226 225 226 227 228 228 229 230 230
301 298 295 292 289 287 286 284 283 281 278 275 272 269 266 264 261 257 255 253 252 250 248 247 245 241 238 234 232 230 229 230 230 229 228 226 226 227 227 227 229 229 231
307 304 301 298 296 294 291 289 286 284 282 278 275 271 268 265 262 259 256 254 252 249 247 246 244 241 239 236 233 230 230 229 230 229 228 228 227 226 227 227 227 229 231
315 311 308 305 302 299 297 294 291 288 285 281 278 274 270 266 263 260 257 255 252 249 247 244 242 240 239 237 235 232 230 230 230 229 229 228 227 225 225 226 227 229 231
317 315 311 308 306 303 300 297 294 291 287 284 280 276 273 269 265 261 257 255 253 250 248 245 243 240 240 238 235 233 230 230 230 229 228 228 227 226 225 226 227 229 231
320 317 314 311 309 306 303 300 296 293 289 285 282 278 274 270 266 262 258 255 253 250 248 246 242 239 238 237 235 233 230 229 229 229 227 227 226 226 226 227 227 227 230
322 319 317 315 312 309 306 303 299 295 291 287 283 279 275 271 267 262 259 255 252 249 247 246 242 238 236 236 234 233 231 230 229 229 227 227 227 226 226 226 226 226 227
322 320 318 315 313 311 308 304 301 297 292 287 283 280 276 271 267 262 259 255 252 248 246 245 241 236 234 234 234 233 231 230 229 228 228 227 226 226 226 225 225 225 227
320 319 318 315 313 311 309 305 301 298 293 288 283 280 276 272 267 263 259 255 252 248 245 243 241 237 234 234 233 233 231 230 229 228 228 227 226 224 225 226 226 226 228
320 319 317 315 312 310 308 306 302 298 294 289 284 280 276 272 268 263 259 255 252 247 243 241 241 238 236 234 233 232 231 230 228 227 227 226 225 224 225 226 227 227 227
319 318 316 314 312 310 308 306 303 299 295 290 285 280 276 273 269 264 259 255 251 247 243 240 239 239 236 234 233 232 231 230 229 228 226 225 224 224 224 225 225 226 227
319 317 316 314 311 309 308 306 303 299 295 291 286 281 277 273 269 265 260 255 251 247 243 240 237 238 236 234 233 230 230 229 230 229 227 224 223 223 223 224 225 226 225
318 317 315 313 311 309 307 305 303 299 296 292 287 282 278 274 270 265 261 256 252 248 244 240 237 236 236 235 233 231 230 229 229 229 227 225 223 221 221 222 222 222 223
318 316 314 313 311 308 307 305 302 299 296 292 288 284 279 275 271 266 262 257 252 248 245 241 238 236 235 234 233 232 231 229 229 229 228 226 224 221 220 219 219 220 221
319 317 315 313 310 308 306 304 302 299 296 293 290 285 281 276 272 267 262 258 253 249 245 242 239 237 235 234 233 232 232 231 230 228 228 226 224 222 221 220 220 220 219
319 317 315 313 310 307 305 304 302 300 296 293 291 287 283 279 273 268 263 258 254 250 246 242 239 236 235 233 232 232 231 230 230 229 227 226 225 223 222 221 219 218 217
320 318 316 314 310 307 305 304 302 300 297 294 292 289 285 281 276 270 265 261 256 251 247 243 239 236 234 232 231 231 230 229 229 228 228 226 226 225 222 220 218 217 215
321 319 316 314 310 308 306 304 302 300 297 294 293 290 287 283 278 273 268 263 259 253 248 244 240 237 234 232 231 229 229 228 227 227 227 226 225 225 224 222 219 215 214
323 320 317 314 311 308 307 305 304 302 298 296 293 291 288 284 279 274 270 266 261 256 251 246 241 237 234 232 231 230 228 227 226 226 225 225 223 223 223 222 220 215 212
Height
5871 5869 5869 5868 5868 5869 5869 5869 5869 5869 5869 5868 5869 5870 5871 5871 5872 5873 5874 5875 5876 5878 5880 5883 5886 5889 5892 5895 5898 5901 5903 5905 5907 5910 5912 5914 5916 5917 5919 5921 5923 5924 5925
5865 5865 5864 5863 5863 5863 5863 5863 5863 5863 5863 5863 5864 5864 5864 5865 5866 5867 5868 5869 5870 5872 5874 5877 5880 5883 5887 5890 5893 5896 5899 5902 5904 5907 5909 5911 5913 5915 5917 5919 5921 5923 5924
5860 5859 5858 5858 5857 5857 5856 5856 5856 5856 5856 5857 5857 5858 5858 5859 5859 5860 5861 5863 5864 5866 5868 5870 5874 5877 5880 5884 5887 5891 5894 5897 5900 5903 5905 5908 5910 5913 5915 5917 5919 5921 5923
5854 5853 5852 5851 5851 5850 5850 5850 5850 5850 5850 5850 5850 5851 5851 5852 5853 5854 5855 5856 5858 5859 5861 5864 5867 5870 5874 5877 5881 5885 5889 5892 5895 5898 5901 5904 5907 5909 5912 5914 5916 5918 5920
5849 5847 5846 5845 5844 5844 5843 5843 5843 5842 5842 5842 5843 5843 5844 5845 5846 5847 5848 5849 5851 5853 5854 5856 5859 5862 5866 5870 5874 5878 5882 5886 5890 5893 5896 5899 5902 5905 5908 5910 5913 5915 5918
5843 5841 5840 5839 5838 5837 5836 5836 5835 5835 5835 5835 5835 5836 5836 5837 5838 5839 5841 5842 5843 5845 5847 5849 5852 5855 5858 5862 5866 5871 5875 5879 5883 5887 5891 5894 5897 5900 5903 5906 5909 5912 5914
5837 5835 5834 5833 5832 5831 5830 5829 5829 5828 5828 5828 5828 5828 5829 5829 5830 5831 5833 5834 5835 5837 5839 5841 5844 5847 5850 5854 5858 5862 5867 5872 5876 5880 5884 5888 5892 5895 5898 5902 5905 5908 5911
5831 5829 5827 5826 5825 5824 5823 5823 5822 5821 5821 5821 5820 5820 5821 5822 5822 5823 5824 5826 5827 5829 5831 5833 5835 5838 5841 5845 5850 5854 5859 5863 5868 5872 5877 5881 5885 5889 5893 5896 5900 5903 5906
5825 5823 5822 5820 5819 5818 5817 5816 5815 5814 5813 5813 5813 5813 5813 5813 5813 5815 5816 5817 5818 5820 5822 5824 5827 5829 5832 5836 5841 5845 5850 5855 5860 5864 5869 5874 5878 5882 5886 5890 5894 5897 5901
5820 5818 5817 5815 5813 5812 5810 5809 5808 5807 5806 5805 5805 5805 5805 5805 5805 5806 5807 5808 5809 5811 5813 5815 5818 5821 5823 5827 5832 5836 5841 5846 5851 5855 5860 5865 5870 5875 5879 5884 5888 5892 5895
5816 5814 5812 5810 5808 5806 5804 5803 5801 5800 5798 5797 5797 5796 5796 5796 5796 5797 5798 5798 5800 5801 5803 5806 5809 5811 5814 5818 5822 5827 5831 5836 5841 5846 5851 5856 5862 5867 5872 5877 5881 5885 5889
5812 5810 5807 5805 5802 5800 5798 5796 5794 5792 5790 5789 5787 5787 5787 5787 5787 5787 5788 5789 5790 5792 5794 5796 5799 5802 5805 5808 5812 5817 5822 5826 5831 5837 5842 5848 5853 5859 5864 5869 5874 5879 5883
5807 5805 5802 5799 5796 5794 5791 5789 5786 5784 5782 5780 5778 5777 5776 5776 5776 5777 5778 5779 5780 5782 5784 5786 5788 5792 5795 5798 5802 5807 5812 5817 5822 5827 5833 5839 5844 5850 5856 5861 5866 5871 5876
5802 5799 5796 5793 5790 5787 5784 5781 5778 5775 5773 5770 5768 5766 5765 5765 5765 5766 5767 5768 5770 5771 5773 5775 5778 5781 5784 5788 5793 5797 5802 5807 5812 5818 5823 5829 5835 5841 5847 5853 5859 5864 5868
5796 5793 5789 5786 5782 5779 5775 5772 5769 5766 5763 5760 5758 5756 5754 5753 5753 5753 5754 5756 5758 5760 5763 5765 5767 5770 5773 5778 5782 5787 5792 5797 5802 5808 5814 5820 5826 5832 5839 5845 5850 5856 5861
5790 5786 5782 5778 5774 5770 5766 5762 5759 5756 5752 5749 5746 5744 5742 5741 5740 5741 5742 5743 5746 5749 5751 5754 5756 5759 5762 5767 5772 5777 5782 5787 5792 5798 5804 5810 5816 5823 5830 5836 5842 5848 5853
5783 5779 5774 5769 5765 5761 5756 5752 5748 5744 5741 5737 5734 5732 5730 5729 5728 5728 5729 5731 5733 5736 5739 5743 5745 5749 5752 5757 5762 5767 5771 5776 5782 5787 5793 5800 5806 5813 5820 5827 5833 5839 5845
5775 5771 5766 5760 5755 5751 5746 5741 5737 5733 5729 5726 5723 5720 5718 5717 5716 5716 5716 5718 5720 5723 5727 5731 5734 5738 5742 5747 5752 5756 5761 5766 5772 5777 5783 5789 5796 5803 5810 5817 5824 5830 5836
5767 5762 5756 5751 5745 5740 5735 5730 5725 5721 5717 5714 5711 5708 5706 5705 5704 5704 5704 5705 5708 5711 5714 5719 5723 5727 5731 5736 5741 5746 5751 5756 5761 5767 5772 5779 5786 5793 5800 5807 5814 5821 5827
5758 5752 5746 5740 5734 5728 5723 5718 5714 5710 5706 5702 5699 5697 5695 5693 5692 5692 5692 5693 5695 5698 5702 5706 5710 5715 5720 5725 5730 5735 5741 5746 5752 5757 5762 5768 5775 5782 5789 5797 5804 5811 5818
5749 5743 5736 5730 5723 5717 5712 5707 5702 5698 5694 5690 5687 5685 5683 5682 5680 5680 5680 5681 5683 5686 5689 5693 5698 5703 5708 5714 5719 5725 5730 5736 5741 5747 5753 5759 5765 5772 5779 5786 5794 5801 5808
5739 5732 5726 5719 5712 5706 5701 5696 5691 5687 5683 5679 5676 5673 5671 5670 5669 5668 5669 5669 5671 5674 5677 5681 5686 5691 5696 5702 5708 5714 5719 5726 5732 5738 5743 5749 5755 5762 5769 5777 5784 5791 5798
5730 5722 5715 5708 5701 5695 5690 5685 5680 5676 5672 5668 5665 5662 5660 5658 5657 5656 5656 5657 5659 5661 5664 5668 5673 5678 5684 5690 5697 5703 5708 5714 5721 5727 5733 5739 5745 5752 5758 5766 5773 5780 5788
5719 5711 5704 5697 5690 5684 5679 5674 5670 5665 5661 5657 5654 5651 5648 5646 5645 5644 5645 5645 5647 5649 5651 5655 5661 5665 5670 5676 5683 5690 5697 5704 5711 5717 5723 5730 5736 5742 5749 5756 5763 5770 5778
5708 5701 5693 5686 5680 5674 5669 5664 5659 5655 5651 5647 5644 5640 5638 5636 5634 5633 5633 5633 5634 5635 5638 5642 5647 5651 5657 5664 5670 5678 5686 5693 5701 5707 5714 5720 5726 5732 5739 5746 5753 5760 5768
5697 5690 5682 5676 5670 5664 5659 5654 5649 5645 5641 5637 5633 5630 5627 5625 5623 5621 5621 5621 5622 5623 5625 5628 5633 5638 5644 5650 5658 5665 5674 5681 5690 5697 5704 5711 5717 5723 5730 5737 5744 5751 5759